Weather History for Sheridan, WY

Change the Weather History Date:

Thursday, February 7, 2013

  Actual Average Record
Temperature  
Mean Temperature 24 °F 25 °F  
Max Temperature 36 °F 37 °F 66 °F (1954)
Min Temperature 12 °F 13 °F -33 °F (1933)
Degree Days  
Heating Degree Days 41 40  
Month to date heating degree days 249 280  
Since 1 July heating degree days 4444 4740  
Cooling Degree Days 0 0  
Month to date cooling degree days 0 0  
Year to date cooling degree days 0 0  
Moisture  
Dew Point 16 °F    
Average Humidity 67    
Maximum Humidity 84    
Minimum Humidity 50    
Precipitation  
Precipitation 0.00 in 0.01 in 0.29 in (1975)
Month to date precipitation 0.04 0.13  
Year to date precipitation 1.00 0.69  
Sea Level Pressure  
Sea Level Pressure 30.04 in    
Wind  
Wind Speed 4 mph (WSW)    
Max Wind Speed 12 mph    
Max Gust Speed -    
Visibility 11 miles    
Events      
T = Trace of Precipitation, MM = Missing Value Source: NWS Daily Summary

Daily Weather History Graph

Daily Weather History Graph

Search for Another Location

Airport:

Trip Planner

Search our weather history database for the weather conditions in past years. The results will help you decide how hot, cold, wet, or windy it might be!

Date:

Astronomy

Feb. 07, 2013 Rise Set
Actual Time 7:19 AM MST 5:25 PM MST
Civil Twilight 6:48 AM MST 5:56 PM MST
Nautical Twilight 6:14 AM MST 6:30 PM MST
Astronomical Twilight 5:40 AM MST 7:04 PM MST
Moon 5:05 AM MST (2/7) 2:49 PM MST (2/7)
Length of Visible Light 11h 07m
Length of Day
10h 06m
Waning Crescent, 8% of the Moon is Illuminated
Feb 7
Waning Crescent
Feb 10
New
Feb 17
First Quarter
Feb 25
Full
Mar 4
Last Quarter

Hourly Weather History & Observations

Time (MST) Temp. Windchill Dew Point Humidity Pressure Visibility Wind Dir Wind Speed Gust Speed Precip Events Conditions
12:53 AM 28.9 °F - 14.0 °F 54% 30.14 in 10.0 mi North - - N/A   Clear
1:53 AM 23.0 °F - 12.9 °F 65% 30.17 in 10.0 mi North - - N/A   Clear
2:53 AM 21.0 °F - 10.9 °F 65% 30.18 in 10.0 mi North - - N/A   Clear
3:53 AM 19.0 °F - 10.0 °F 68% 30.18 in 10.0 mi North - - N/A   Clear
4:53 AM 19.9 °F - 10.0 °F 65% 30.18 in 10.0 mi North - - N/A   Clear
5:00 AM 23.0 °F 18.4 °F 10.4 °F 59% 30.05 in 25.0 mi South 3.5 mph - N/A   Clear
5:53 AM 18.0 °F - 8.1 °F 65% 30.17 in 10.0 mi North - - N/A   Clear
6:00 AM 24.8 °F - 10.4 °F 54% 30.05 in 25.0 mi WNW 2.3 mph - N/A   Clear
6:53 AM 14.0 °F - 6.1 °F 71% 30.19 in 10.0 mi North - - N/A   Clear
7:00 AM 23.0 °F 18.4 °F 8.6 °F 54% 30.04 in 25.0 mi SW 3.5 mph - N/A   Clear
7:53 AM 19.0 °F - 8.1 °F 62% 30.17 in 10.0 mi North - - N/A   Clear
8:53 AM 21.0 °F - 9.0 °F 60% 30.17 in 10.0 mi North - - N/A   Clear
8:59 AM 24.8 °F - 8.6 °F 50% 30.05 in 25.0 mi South 1.2 mph - N/A   Partly Cloudy
9:53 AM 26.1 °F - 10.9 °F 53% 30.14 in 10.0 mi North - - N/A   Clear
10:00 AM 28.4 °F - 10.4 °F 47% 30.05 in 25.0 mi West 1.2 mph - N/A   Partly Cloudy
10:53 AM 28.9 °F - 16.0 °F 58% 30.12 in 10.0 mi North - - N/A   Clear
11:05 AM 30.2 °F 25.4 °F 14.0 °F 51% 30.01 in 25.0 mi NW 4.6 mph - N/A   Scattered Clouds
11:53 AM 35.1 °F - 19.0 °F 52% 30.08 in 10.0 mi North - - N/A   Clear
11:59 AM 37.4 °F - 17.6 °F 45% 30.00 in 25.0 mi East 2.3 mph - N/A   Mostly Cloudy
12:53 PM 35.1 °F - 21.0 °F 57% 30.05 in 10.0 mi North - - N/A   Clear
12:55 PM 37.4 °F 31.4 °F 19.4 °F 48% 29.95 in 25.0 mi NNE 8.1 mph - N/A   Mostly Cloudy
1:53 PM 35.1 °F - 23.0 °F 61% 30.04 in 10.0 mi North - - N/A   Clear
1:57 PM 37.4 °F 32.8 °F 21.2 °F 52% 29.92 in 25.0 mi SE 5.8 mph - N/A   Mostly Cloudy
2:53 PM 35.1 °F - 24.1 °F 64% 30.05 in 10.0 mi North - - N/A   Clear
2:59 PM 35.6 °F 32.8 °F 23.0 °F 60% 29.92 in 25.0 mi SW 3.5 mph - N/A   Overcast
3:53 PM 32.0 °F - 24.1 °F 73% 30.05 in 10.0 mi North - - N/A   Clear
3:59 PM 33.8 °F 29.6 °F 23.0 °F 65% 29.92 in 25.0 mi West 4.6 mph - N/A   Mostly Cloudy
4:53 PM 30.9 °F - 24.1 °F 76% 30.04 in 10.0 mi North - - N/A   Clear
4:59 PM 32.0 °F 28.7 °F 23.0 °F 69% 29.90 in 25.0 mi WNW 3.5 mph - N/A   Mostly Cloudy
5:53 PM 28.9 °F - 21.9 °F 75% 30.04 in 10.0 mi North - - N/A   Clear
6:00 PM 30.2 °F 25.4 °F 23.0 °F 75% 29.91 in 15.0 mi WSW 4.6 mph - N/A   Mostly Cloudy
6:53 PM 26.1 °F - 21.0 °F 81% 30.07 in 10.0 mi North - - N/A   Clear
7:01 PM 28.4 °F 24.6 °F 21.2 °F 74% 29.90 in 15.0 mi South 3.5 mph - N/A   Mostly Cloudy
7:53 PM 26.1 °F - 19.9 °F 78% 30.03 in 10.0 mi North - - N/A   Clear
8:02 PM 28.4 °F - 21.2 °F 74% 29.88 in 15.0 mi WSW 1.2 mph - N/A   Mostly Cloudy
8:53 PM 24.1 °F - 18.0 °F 77% 30.02 in 10.0 mi North - - N/A   Clear
9:03 PM 26.6 °F - 19.4 °F 74% 29.87 in 15.0 mi NNE 1.2 mph - N/A   Mostly Cloudy
9:53 PM 21.9 °F - 18.0 °F 85% 30.00 in 10.0 mi North - - N/A   Clear
10:03 PM 24.8 °F 14.0 °F 19.4 °F 80% 29.86 in 15.0 mi North 11.5 mph - N/A   Scattered Clouds
10:53 PM 21.0 °F - 16.0 °F 81% 29.99 in 10.0 mi North - - N/A   Clear
11:53 PM 19.9 °F - 16.0 °F 85% 29.97 in 10.0 mi North - - N/A   Clear